Terminal Aerodrome Forecast
Issued by NWS

Home | Current Version | Previous Version | Text Only | Print | Product List | Glossary On
Versions: 1 2 3 4 5 6 7 8 9 10 11 12 13 14
448
FTUS42 TJSJ 060530
TAFJSJ
TAF
TJSJ 060530Z 0606/0706 08008KT P6SM -SHRA VCSH FEW024 SCT040 BKN060
     FM061300 07011KT P6SM SCT030 BKN100
     FM062200 VRB03KT P6SM SCT030=

USA.gov is the U.S. government's official web portal to all federal, state and local government web resources and services.